Time,TemperatureF,DewpointF,PressureIn,WindDirection,WindDirectionDegrees,WindSpeedMPH,WindSpeedGustMPH,Humidity,HourlyPrecipIn,Conditions,Clouds,dailyrainin,SoftwareType,DateUTC
2013-03-10 00:10:00,27.1,26.0,30.12,WSW,255,3.0,13.0,95,0.00,,,0.02,weatherlink.com 1.10,2013-03-10 09:10:00,
2013-03-10 00:25:00,26.9,26.0,30.12,WSW,254,3.0,10.0,95,0.00,,,0.02,weatherlink.com 1.10,2013-03-10 09:25:00,
2013-03-10 00:40:00,26.9,26.0,30.13,SSW,207,4.0,10.0,95,0.00,,,0.00,weatherlink.com 1.10,2013-03-10 09:40:00,
2013-03-10 00:55:00,27.0,26.0,30.13,WSW,249,4.0,9.0,95,0.00,,,0.00,weatherlink.com 1.10,2013-03-10 09:55:00,
2013-03-10 01:10:00,26.4,25.0,30.14,SSW,197,1.0,9.0,94,0.00,,,0.00,weatherlink.com 1.10,2013-03-10 10:10:00,
2013-03-10 01:25:00,25.7,24.0,30.14,WSW,246,2.0,12.0,92,0.00,,,0.00,weatherlink.com 1.10,2013-03-10 10:25:00,
2013-03-10 01:40:00,25.1,23.0,30.14,WSW,246,3.0,8.0,90,0.00,,,0.00,weatherlink.com 1.10,2013-03-10 10:40:00,
2013-03-10 01:55:00,25.2,22.0,30.14,WSW,251,0.0,8.0,89,0.00,,,0.00,weatherlink.com 1.10,2013-03-10 10:55:00,
2013-03-10 03:10:00,25.1,22.0,30.14,SW,235,11.0,11.0,88,0.00,,,0.00,weatherlink.com 1.10,2013-03-10 11:10:00,
2013-03-10 03:25:00,25.4,22.0,30.14,SW,215,3.0,12.0,87,0.00,,,0.00,weatherlink.com 1.10,2013-03-10 11:25:00,
2013-03-10 03:40:00,25.6,22.0,30.14,SSW,194,7.0,13.0,87,0.00,,,0.00,weatherlink.com 1.10,2013-03-10 11:40:00,
2013-03-10 03:55:00,25.5,23.0,30.14,WSW,250,5.0,11.0,88,0.00,,,0.00,weatherlink.com 1.10,2013-03-10 11:55:00,
2013-03-10 04:10:00,25.6,22.0,30.14,SW,229,5.0,10.0,87,0.00,,,0.00,weatherlink.com 1.10,2013-03-10 12:10:00,
2013-03-10 04:25:00,25.7,22.0,30.14,South,172,1.0,10.0,87,0.00,,,0.00,weatherlink.com 1.10,2013-03-10 12:25:00,
2013-03-10 04:40:00,25.8,23.0,30.13,SW,228,3.0,11.0,87,0.00,,,0.00,weatherlink.com 1.10,2013-03-10 12:40:00,
2013-03-10 04:55:00,26.0,22.0,30.13,South,188,1.0,10.0,86,0.00,,,0.00,weatherlink.com 1.10,2013-03-10 12:55:00,
2013-03-10 05:10:00,26.1,23.0,30.12,SW,234,7.0,14.0,86,0.00,,,0.00,weatherlink.com 1.10,2013-03-10 13:10:00,
2013-03-10 05:25:00,26.1,23.0,30.12,SSW,204,7.0,14.0,87,0.00,,,0.00,weatherlink.com 1.10,2013-03-10 13:25:00,
2013-03-10 05:40:00,26.3,23.0,30.12,South,182,2.0,13.0,87,0.00,,,0.00,weatherlink.com 1.10,2013-03-10 13:40:00,
2013-03-10 05:55:00,26.4,23.0,30.13,WSW,251,5.0,11.0,88,0.00,,,0.00,weatherlink.com 1.10,2013-03-10 13:55:00,
2013-03-10 06:10:00,26.6,24.0,30.12,SSW,211,6.0,12.0,88,0.00,,,0.00,weatherlink.com 1.10,2013-03-10 14:10:00,
2013-03-10 06:25:00,26.9,24.0,30.12,South,180,7.0,9.0,89,0.00,,,0.00,weatherlink.com 1.10,2013-03-10 14:25:00,
2013-03-10 06:40:00,27.0,24.0,30.12,SSW,209,3.0,12.0,89,0.00,,,0.00,weatherlink.com 1.10,2013-03-10 14:40:00,
2013-03-10 06:55:00,27.1,24.0,30.12,South,190,4.0,10.0,87,0.00,,,0.00,weatherlink.com 1.10,2013-03-10 14:55:00,
2013-03-10 07:10:00,27.1,24.0,30.11,South,182,1.0,9.0,86,0.00,,,0.00,weatherlink.com 1.10,2013-03-10 15:10:00,
2013-03-10 07:25:00,27.2,24.0,30.11,SSW,203,4.0,10.0,86,0.00,,,0.00,weatherlink.com 1.10,2013-03-10 15:25:00,
2013-03-10 07:40:00,27.2,23.0,30.11,SSW,200,5.0,8.0,85,0.00,,,0.00,weatherlink.com 1.10,2013-03-10 15:40:00,
2013-03-10 07:55:00,27.2,23.0,30.10,South,188,2.0,7.0,85,0.00,,,0.00,weatherlink.com 1.10,2013-03-10 15:55:00,
2013-03-10 08:10:00,27.2,24.0,30.10,South,182,2.0,8.0,86,0.00,,,0.00,weatherlink.com 1.10,2013-03-10 16:10:00,
2013-03-10 08:25:00,26.5,23.0,30.09,SSW,209,3.0,7.0,88,0.00,,,0.00,weatherlink.com 1.10,2013-03-10 16:25:00,
2013-03-10 08:40:00,26.3,24.0,30.09,SSW,213,2.0,4.0,89,0.00,,,0.00,weatherlink.com 1.10,2013-03-10 16:40:00,
2013-03-10 08:56:00,26.5,23.0,30.08,SE,146,5.0,7.0,87,0.00,,,0.00,weatherlink.com 1.10,2013-03-10 16:56:00,
2013-03-10 09:11:00,26.7,23.0,30.08,South,180,6.0,13.0,87,0.00,,,0.00,weatherlink.com 1.10,2013-03-10 17:11:00,
2013-03-10 09:26:00,26.3,24.0,30.08,South,184,5.0,12.0,90,0.00,,,0.00,weatherlink.com 1.10,2013-03-10 17:26:00,
2013-03-10 09:41:00,26.1,24.0,30.08,SSW,195,2.0,6.0,91,0.00,,,0.00,weatherlink.com 1.10,2013-03-10 17:41:00,
2013-03-10 09:56:00,26.0,24.0,30.08,South,191,1.0,4.0,93,0.00,,,0.00,weatherlink.com 1.10,2013-03-10 17:56:00,
2013-03-10 10:11:00,26.1,24.0,30.08,South,191,0.0,4.0,93,0.00,,,0.00,weatherlink.com 1.10,2013-03-10 18:11:00,
2013-03-10 10:26:00,26.2,25.0,30.08,South,191,0.0,2.0,94,0.01,,,0.01,weatherlink.com 1.10,2013-03-10 18:26:00,
2013-03-10 10:41:00,26.4,25.0,30.07,South,191,0.0,2.0,94,0.01,,,0.01,weatherlink.com 1.10,2013-03-10 18:41:00,
2013-03-10 10:56:00,26.5,25.0,30.07,South,191,0.0,3.0,94,0.01,,,0.01,weatherlink.com 1.10,2013-03-10 18:56:00,
2013-03-10 11:11:00,26.6,25.0,30.07,East,101,2.0,3.0,94,0.02,,,0.02,weatherlink.com 1.10,2013-03-10 19:11:00,
2013-03-10 11:26:00,26.4,25.0,30.07,SE,129,3.0,5.0,94,0.01,,,0.02,weatherlink.com 1.10,2013-03-10 19:26:00,
2013-03-10 12:26:00,26.9,26.0,30.05,East,88,3.0,6.0,95,0.02,,,0.04,weatherlink.com 1.10,2013-03-10 20:26:00,
2013-03-10 12:41:00,27.3,26.0,30.06,East,88,1.0,3.0,95,0.01,,,0.04,weatherlink.com 1.10,2013-03-10 20:41:00,
2013-03-10 13:11:00,28.1,27.0,30.05,East,88,2.0,3.0,95,0.00,,,0.04,weatherlink.com 1.10,2013-03-10 21:11:00,
2013-03-10 13:26:00,28.6,27.0,30.05,East,88,0.0,3.0,94,0.00,,,0.04,weatherlink.com 1.10,2013-03-10 21:26:00,
2013-03-10 13:41:00,29.5,28.0,30.06,East,88,1.0,2.0,94,0.00,,,0.04,weatherlink.com 1.10,2013-03-10 21:41:00,
2013-03-10 13:56:00,30.4,29.0,30.06,East,88,0.0,2.0,93,0.00,,,0.04,weatherlink.com 1.10,2013-03-10 21:56:00,
2013-03-10 14:11:00,31.0,29.0,30.06,East,88,0.0,2.0,91,0.00,,,0.04,weatherlink.com 1.10,2013-03-10 22:11:00,
2013-03-10 14:41:00,31.1,29.0,30.06,East,88,0.0,2.0,91,0.00,,,0.04,weatherlink.com 1.10,2013-03-10 22:41:00,
2013-03-10 15:11:00,31.4,29.0,30.07,East,88,0.0,2.0,91,0.00,,,0.04,weatherlink.com 1.10,2013-03-10 23:11:00,
2013-03-10 15:41:00,30.9,29.0,30.07,East,88,1.0,3.0,92,0.00,,,0.04,weatherlink.com 1.10,2013-03-10 23:41:00,
2013-03-10 15:56:00,30.8,29.0,30.07,East,88,0.0,2.0,93,0.01,,,0.05,weatherlink.com 1.10,2013-03-10 23:56:00,
2013-03-10 16:11:00,30.8,29.0,30.07,East,88,0.0,2.0,93,0.01,,,0.05,weatherlink.com 1.10,2013-03-11 00:11:00,
2013-03-10 16:26:00,31.5,30.0,30.07,East,88,0.0,2.0,93,0.01,,,0.05,weatherlink.com 1.10,2013-03-11 00:26:00,
2013-03-10 16:41:00,32.2,30.0,30.08,East,88,3.0,3.0,92,0.01,,,0.05,weatherlink.com 1.10,2013-03-11 00:41:00,
2013-03-10 16:56:00,31.4,29.0,30.08,North,5,0.0,3.0,91,0.01,,,0.06,weatherlink.com 1.10,2013-03-11 00:56:00,
2013-03-10 17:11:00,31.0,29.0,30.09,NW,317,0.0,4.0,91,0.02,,,0.07,weatherlink.com 1.10,2013-03-11 01:11:00,
2013-03-10 17:26:00,31.0,29.0,30.09,NW,317,0.0,2.0,92,0.03,,,0.08,weatherlink.com 1.10,2013-03-11 01:26:00,
2013-03-10 17:41:00,30.6,29.0,30.09,ENE,71,0.0,2.0,93,0.03,,,0.08,weatherlink.com 1.10,2013-03-11 01:41:00,
2013-03-10 17:56:00,30.7,29.0,30.10,ENE,71,0.0,3.0,92,0.02,,,0.08,weatherlink.com 1.10,2013-03-11 01:56:00,
2013-03-10 18:11:00,30.5,28.0,30.10,North,360,3.0,5.0,91,0.01,,,0.08,weatherlink.com 1.10,2013-03-11 02:11:00,
2013-03-10 18:26:00,29.8,28.0,30.10,North,5,3.0,8.0,91,0.00,,,0.08,weatherlink.com 1.10,2013-03-11 02:26:00,
2013-03-10 18:56:00,28.7,26.0,30.11,NNW,339,2.0,6.0,91,0.00,,,0.08,weatherlink.com 1.10,2013-03-11 02:56:00,
2013-03-10 19:11:00,28.2,26.0,30.11,North,5,6.0,9.0,91,0.00,,,0.08,weatherlink.com 1.10,2013-03-11 03:11:00,
2013-03-10 19:26:00,27.6,25.0,30.12,NNW,347,3.0,7.0,91,0.00,,,0.08,weatherlink.com 1.10,2013-03-11 03:26:00,
2013-03-10 19:41:00,26.9,24.0,30.12,NNW,347,4.0,8.0,90,0.00,,,0.08,weatherlink.com 1.10,2013-03-11 03:41:00,
2013-03-10 19:56:00,26.5,24.0,30.13,NNW,336,4.0,8.0,91,0.00,,,0.08,weatherlink.com 1.10,2013-03-11 03:56:00,
2013-03-10 20:11:00,26.4,24.0,30.13,NNW,333,2.0,5.0,91,0.00,,,0.08,weatherlink.com 1.10,2013-03-11 04:11:00,
2013-03-10 20:26:00,26.5,25.0,30.14,WNW,302,2.0,6.0,93,0.00,,,0.08,weatherlink.com 1.10,2013-03-11 04:26:00,
2013-03-10 20:41:00,26.7,25.0,30.14,West,277,1.0,6.0,93,0.00,,,0.08,weatherlink.com 1.10,2013-03-11 04:41:00,
2013-03-10 20:56:00,26.9,25.0,30.15,North,355,4.0,8.0,92,0.00,,,0.08,weatherlink.com 1.10,2013-03-11 04:56:00,
2013-03-10 21:11:00,26.3,24.0,30.15,North,5,1.0,6.0,92,0.00,,,0.08,weatherlink.com 1.10,2013-03-11 05:11:00,
2013-03-10 21:26:00,26.0,24.0,30.16,NNW,347,7.0,9.0,92,0.00,,,0.08,weatherlink.com 1.10,2013-03-11 05:26:00,
2013-03-10 21:56:00,26.2,24.0,30.17,NNE,22,5.0,10.0,92,0.00,,,0.08,weatherlink.com 1.10,2013-03-11 05:56:00,
2013-03-10 22:11:00,26.3,24.0,30.18,NNE,19,4.0,9.0,92,0.00,,,0.08,weatherlink.com 1.10,2013-03-11 06:11:00,
2013-03-10 22:26:00,26.2,24.0,30.18,NNW,345,5.0,10.0,92,0.00,,,0.08,weatherlink.com 1.10,2013-03-11 06:26:00,
2013-03-10 22:41:00,25.6,24.0,30.19,North,349,3.0,8.0,92,0.00,,,0.08,weatherlink.com 1.10,2013-03-11 06:41:00,
2013-03-10 22:57:00,25.6,24.0,30.19,NNW,344,4.0,8.0,92,0.00,,,0.08,weatherlink.com 1.10,2013-03-11 06:57:00,
2013-03-10 23:12:00,25.0,23.0,30.19,NNW,344,5.0,6.0,92,0.00,,,0.08,weatherlink.com 1.10,2013-03-11 07:12:00,
2013-03-10 23:27:00,24.4,22.0,30.20,NNW,344,2.0,6.0,92,0.00,,,0.08,weatherlink.com 1.10,2013-03-11 07:27:00,
2013-03-10 23:42:00,24.8,23.0,30.20,NNW,343,4.0,9.0,93,0.00,,,0.08,weatherlink.com 1.10,2013-03-11 07:42:00,
2013-03-10 23:57:00,25.2,24.0,30.21,North,350,3.0,8.0,93,0.00,,,0.08,weatherlink.com 1.10,2013-03-11 07:57:00,